User: anonymous   Login
Location: ?????
(42.2640°N, 43.4211°E)
Time: 04:47:40
(UTC+00:00)
Language:

Cosmos 2112 Rocket - Orbit

View from above orbital plane
View from above orbital plane
View from above satellite
View from above satellite

Ground track
Ground track

The orbit data is extracted from the following two-line orbital elements,

1 21015U 90111B   20304.29511958 +.00000039 +00000-0 +22451-4 0  9990
2 21015 074.0532 038.9520 0021944 356.3655 060.5307 14.36016592662600
Epoch (UTC): 30 October 2020 07:04:58
Eccentricity: 0.0021944
inclination: 74.0532°
perigee height: 756 km
apogee height: 787 km
right ascension of ascending node: 38.9520°
argument of perigee: 356.3655°
revolutions per day: 14.36016592
mean anomaly at epoch: 60.5307°
orbit number at epoch: 66260

The dashed part of the orbit path shows where the satellite is in the earth's shadow,  

DLR